Warner Robins, GA

5:10 PM EDT on July 23, 2017 (GMT -0400)
Robins Air Force Base

Weather History for KWRB - December, 2012

Change the Weather History Date:

Monday, December 10, 2012

  Actual Average Record
Temperature  
Mean Temperature 62 °F -  
Max Temperature 73 °F 58 °F 79 °F (2007)
Min Temperature 51 °F 37 °F 21 °F (2010)
Degree Days  
Heating Degree Days 3    
Growing Degree Days 12 (Base 50)    
Moisture  
Dew Point 58 °F    
Average Humidity 89    
Maximum Humidity 100    
Minimum Humidity 62    
Precipitation  
Precipitation 0.09 in - - ()
Sea Level Pressure  
Sea Level Pressure 29.86 in    
Wind  
Wind Speed 3 mph (South)    
Max Wind Speed 12 mph    
Max Gust Speed -    
Visibility 8 miles    
Events Rain    
Averages and records for this station are not official NWS values.
T = Trace of Precipitation, MM = Missing Value Source: NWS Daily Summary

Daily Weather History Graph

Daily Weather History Graph

Search for Another Location

Airport or City:

Trip Planner

Search our weather history database for the weather conditions in past years. The results will help you decide how hot, cold, wet, or windy it might be!

Date:

Astronomy

Dec. 10, 2012 Rise Set
Actual Time 7:25 AM EST 5:28 PM EST
Civil Twilight 6:58 AM EST 5:56 PM EST
Nautical Twilight 6:28 AM EST 6:26 PM EST
Astronomical Twilight 5:58 AM EST 6:56 PM EST
Moon 4:14 AM EST (12/10) 3:12 PM EST (12/10)
Length of Visible Light 10h 57m
Length of Day
10h 02m
Waning Crescent, 10% of the Moon is Illuminated
Dec 10
Waning Crescent
Dec 13
New
Dec 20
First Quarter
Dec 28
Full
Jan 4
Last Quarter

Hourly Weather History & Observations

Time (EST) Temp. Dew Point Humidity Pressure Visibility Wind Dir Wind Speed Gust Speed Precip Events Conditions
12:55 AM 54.7 °F 53.8 °F 97% 29.98 in 10.0 mi Calm Calm - N/A   Scattered Clouds
1:55 AM 54.0 °F 53.1 °F 97% 29.97 in 6.0 mi Calm Calm - N/A   Clear
2:55 AM 53.8 °F 53.1 °F 97% 29.96 in 10.0 mi SE 3.5 mph - N/A   Partly Cloudy
3:55 AM 53.6 °F 52.7 °F 97% 29.94 in 10.0 mi Calm Calm - N/A   Clear
4:55 AM 52.7 °F 52.0 °F 97% 29.94 in 10.0 mi Calm Calm - N/A   Scattered Clouds
5:55 AM 51.8 °F 50.9 °F 97% 29.91 in 10.0 mi SE 4.6 mph - N/A   Clear
6:11 AM 51.8 °F 51.8 °F 100% 29.91 in 9.0 mi SSE 4.6 mph - N/A   Clear
6:13 AM 51.8 °F 51.8 °F 100% 29.91 in 9.0 mi SSE 4.6 mph - N/A   Clear
6:24 AM 53.6 °F 51.8 °F 94% 29.91 in 10.0 mi SE 4.6 mph - N/A   Partly Cloudy
6:33 AM 53.6 °F 51.8 °F 94% 29.91 in 10.0 mi SSE 3.5 mph - N/A   Mostly Cloudy
6:53 AM 55.4 °F 53.6 °F 94% 29.91 in 8.0 mi Calm Calm - N/A   Overcast
6:55 AM 54.7 °F 54.1 °F 98% 29.91 in 8.0 mi SSE 3.5 mph - N/A   Overcast
7:14 AM 55.4 °F 55.4 °F 100% 29.91 in 5.0 mi SE 4.6 mph - N/A   Overcast
7:48 AM 55.4 °F 55.4 °F 100% 29.91 in 4.0 mi SE 3.5 mph - N/A   Mostly Cloudy
7:55 AM 56.1 °F 55.6 °F 98% 29.91 in 4.0 mi SE 4.6 mph - N/A   Mostly Cloudy
8:07 AM 57.2 °F 55.4 °F 94% 29.90 in 6.0 mi SE 4.6 mph - N/A   Mostly Cloudy
8:11 AM 57.2 °F 55.4 °F 94% 29.90 in 5.0 mi SE 4.6 mph - N/A   Mostly Cloudy
8:18 AM 57.2 °F 55.4 °F 94% 29.91 in 5.0 mi SE 3.5 mph - N/A   Overcast
8:22 AM 57.2 °F 55.4 °F 94% 29.91 in 5.0 mi SE 4.6 mph - N/A   Overcast
8:37 AM 57.2 °F 57.2 °F 100% 29.90 in 5.0 mi SE 3.5 mph - N/A   Mostly Cloudy
8:55 AM 57.7 °F 57.2 °F 98% 29.91 in 5.0 mi Calm Calm - N/A   Mostly Cloudy
9:55 AM 61.5 °F 60.1 °F 95% 29.91 in 10.0 mi SSW 6.9 mph - N/A   Partly Cloudy
10:48 AM 64.4 °F 59.0 °F 83% 29.90 in 10.0 mi SW 8.1 mph - N/A   Mostly Cloudy
10:55 AM 65.3 °F 58.6 °F 79% 29.90 in 10.0 mi SW 11.5 mph - N/A   Mostly Cloudy
11:03 AM 66.2 °F 59.0 °F 78% 29.90 in 10.0 mi SW 9.2 mph - N/A   Mostly Cloudy
11:55 AM 71.1 °F 59.2 °F 66% 29.86 in 10.0 mi SSW 8.1 mph - N/A   Partly Cloudy
12:55 PM 71.4 °F 58.3 °F 63% 29.84 in 10.0 mi SSW 10.4 mph - N/A   Scattered Clouds
1:55 PM 70.5 °F 58.1 °F 65% 29.81 in 10.0 mi SW 10.4 mph - N/A   Mostly Cloudy
2:55 PM 72.0 °F 58.1 °F 62% 29.79 in 10.0 mi South 10.4 mph - N/A   Scattered Clouds
3:55 PM 72.5 °F 59.0 °F 62% 29.77 in 10.0 mi SSW 6.9 mph - N/A   Mostly Cloudy
4:55 PM 73.0 °F 59.2 °F 62% 29.75 in 10.0 mi Calm Calm - N/A   Mostly Cloudy
5:30 PM 69.8 °F 59.0 °F 68% 29.76 in 10.0 mi Calm Calm - N/A Rain Light Rain
5:38 PM 69.8 °F 60.8 °F 73% 29.76 in 9.0 mi WNW 9.2 mph - N/A Rain Light Rain
5:45 PM 69.8 °F 62.6 °F 78% 29.78 in 5.0 mi WNW 9.2 mph - N/A Rain Light Rain
5:55 PM 66.6 °F 63.0 °F 88% 29.78 in 3.0 mi Calm Calm - 0.07 in Rain Rain
5:56 PM 66.2 °F 62.6 °F 88% 29.78 in 4.0 mi Variable 4.6 mph - N/A Rain Rain
6:19 PM 66.2 °F 62.6 °F 88% 29.79 in 10.0 mi South 5.8 mph - N/A   Mostly Cloudy
6:33 PM 66.2 °F 62.6 °F 88% 29.81 in 10.0 mi WNW 5.8 mph - N/A Rain Light Rain
6:55 PM 65.8 °F 63.5 °F 92% 29.81 in 10.0 mi Calm Calm - 0.01 in   Light Drizzle
6:57 PM 66.2 °F 62.6 °F 88% 29.81 in 10.0 mi Calm Calm - N/A   Overcast
6:59 PM 66.2 °F 62.6 °F 88% 29.81 in 10.0 mi SSE 3.5 mph - N/A Rain Light Rain
7:15 PM 66.2 °F 62.6 °F 88% 29.79 in 10.0 mi South 6.9 mph - N/A   Overcast
7:55 PM 64.2 °F 62.8 °F 95% 29.79 in 10.0 mi WSW 3.5 mph - 0.01 in   Overcast
8:55 PM 63.9 °F 62.4 °F 95% 29.80 in 10.0 mi SW 3.5 mph - N/A   Overcast
9:20 PM 62.6 °F 62.6 °F 100% 29.82 in 10.0 mi SW 4.6 mph - N/A   Mostly Cloudy
9:41 PM 64.4 °F 62.6 °F 94% 29.82 in 10.0 mi SW 4.6 mph - N/A   Overcast
9:55 PM 64.8 °F 62.8 °F 93% 29.82 in 10.0 mi WSW 5.8 mph - N/A   Overcast
10:55 PM 63.7 °F 61.7 °F 93% 29.82 in 10.0 mi SW 4.6 mph - N/A   Scattered Clouds
11:31 PM 62.6 °F 60.8 °F 94% 29.82 in 5.0 mi NW 3.5 mph - N/A   Mostly Cloudy
11:35 PM 62.6 °F 60.8 °F 94% 29.82 in 5.0 mi NW 3.5 mph - N/A   Overcast
11:55 PM 62.2 °F 60.6 °F 94% 29.82 in 10.0 mi Calm Calm - N/A   Mostly Cloudy